Regional Weather Roundup
Issued by NWS

Home | Current Version | Previous Version | Graphics & Text | Print | Product List | Glossary On
Versions: 1 2 3 4 5 6 7 8 9 10 11 12 13 14 15 16 17 18 19 20 21 22 23 24 25 26 27 28 29 30 31 32 33 34 35 36 37 38 39 40 41 42 43 44 45 46 47 48 49 50
000
ASUS45 KPSR 241910
RWRAZ

ARIZONA REGIONAL HOURLY WEATHER ROUNDUP
NATIONAL WEATHER SERVICE PHOENIX AZ
1200 PM MST FRI OCT 24 2014

NOTE: FAIR INDICATES FEW OR NO CLOUDS BELOW 12,000 FEET WITH NO
SIGNIFICANT WEATHER AND/OR OBSTRUCTIONS TO VISIBILITY.

AZZ001>003-036-242000-
NORTHWEST ARIZONA

CITY           SKY/WX    TMP DP  RH WIND       PRES   REMARKS
BULLHEAD CITY  SUNNY     84  41  21 W3        30.04F
KINGMAN        SUNNY     82  39  21 N6        30.17F
$$

AZZ004>008-015-016-018-242000-
NORTH CENTRAL ARIZONA

CITY           SKY/WX    TMP DP  RH WIND       PRES   REMARKS
GRAND CANYON   SUNNY     71  26  18 VRB6      30.37F
PRESCOTT       SUNNY     77  36  22 VRB3      30.28F
FLAGSTAFF      SUNNY     68  26  20 S8        30.40F
PAYSON         SUNNY     75  43  31 CALM      30.31F
PAGE           SUNNY     70  34  26 W5        30.26F
$$

AZZ009>014-017-242000-
NORTHEAST ARIZONA

CITY           SKY/WX    TMP DP  RH WIND       PRES   REMARKS
WINSLOW        SUNNY     75  40  28 E7        30.28F
SAINT JOHNS    SUNNY     74  35  24 VRB3      30.31F
WINDOW ROCK    SUNNY     74  29  19 CALM      30.38F
SHOW LOW       SUNNY     72  37  28 W6        30.38F
$$

AZZ023-242000-
GREATER PHOENIX AREA

CITY           SKY/WX    TMP DP  RH WIND       PRES   REMARKS
PHOENIX        SUNNY     89  48  24 E8        30.03F
BUCKEYE          N/A     86  48  26 E13       30.03F
GLENDALE       SUNNY     88  48  25 NE6       30.05F
LUKE AFB       SUNNY     87  49  27 CALM      30.03F
DEER VALLEY    SUNNY     85  45  24 CALM      30.05F
SCOTTSDALE     SUNNY     87  48  25 CALM      30.07F
MESA-FALCON    SUNNY     88  50  27 VRB5      30.04F
MESA-GATEWAY   SUNNY     84  52  32 CALM      30.07F
CHANDLER       SUNNY     86  50  28 CALM      30.05F
$$

AZZ027-028-242000-
SOUTHWEST MARICOPA COUNTY AND PINAL COUNTY

CITY           SKY/WX    TMP DP  RH WIND       PRES   REMARKS
CASA GRANDE    SUNNY     86  48  26 CALM      30.06F
GILA BEND      CLEAR     91  48  22 N6        30.02F
$$

AZZ503-504-507>509-242000-
SOUTHEAST ARIZONA

CITY           SKY/WX    TMP DP  RH WIND       PRES   REMARKS
TUCSON         SUNNY     88  46  23 CALM      30.12F
DAVIS-MONTHAN  SUNNY     87  47  25 N5        30.10F
RYAN FIELD       N/A     90  48  24 CALM      30.10F
NOGALES        SUNNY     85  45  24 VRB6      30.19F
SIERRA VISTA   MOSUNNY   82  45  26 SE7       30.25F
DOUGLAS        SUNNY     81  45  28 S3        30.22F
SAFFORD        SUNNY     80  46  30 SE3       30.17F
$$

AZZ020-021-025-026-031-242000-
SOUTHWEST ARIZONA

CITY           SKY/WX    TMP DP  RH WIND       PRES   REMARKS
YUMA           SUNNY     94  45  18 NE5       29.97F
$$

CAZ031-033-041-043-047-048-061-242000-
SOUTHERN CALIFORNIA

CITY           SKY/WX    TMP DP  RH WIND       PRES   REMARKS
DOWNTOWN L.A.  SUNNY     84  46  26 S3        29.97F
L.A. AIRPORT   SUNNY     77  59  53 W7        29.99S
SAN DIEGO      SUNNY     83  43  24 W3        29.99F
BURBANK        SUNNY     85  40  20 SE9       29.99F
ONTARIO        SUNNY     86  33  15 VRB3      30.00F
RIVERSIDE      SUNNY     88  37  16 W5        29.99F
PALM SPRINGS   SUNNY     92  39  15 E7        29.99F
EL CENTRO NAS  SUNNY     91  44  19 CALM      29.96F
IMPERIAL       SUNNY     90  48  23 VRB3      29.96F
BLYTHE         SUNNY     89  46  22 E3        30.00F
NEEDLES        SUNNY     86  40  19 NE3       30.04F
$$

NVZ020-UTZ003-242000-
SOUTHERN NEVADA-UTAH

CITY           SKY/WX    TMP DP  RH WIND       PRES   REMARKS
LAS VEGAS      SUNNY     79  37  22 VRB3      30.07F
SALT LAKE CITY SUNNY     76  31  19 S12G18    30.15F
$$

NMZ009-TXZ055-242000-
NEW MEXICO-WEST TEXAS

CITY           SKY/WX    TMP DP  RH WIND       PRES   REMARKS
ALBUQUERQUE    SUNNY     72  33  24 CALM      30.32F
EL PASO        SUNNY     78  49  35 CALM      30.23F
$$


........................KEY........................
SKY/WX - SKY CONDITION/WEATHER
TMP    - TEMPERATURE IN FAHRENHEIT
DP     - DEW POINT IN FAHRENHEIT
RH     - RELATIVE HUMIDITY IN PERCENT
WIND   - DIRECTION AND SPEED IN MILES PER HOUR (MPH)
VRB    - VARIABLE WIND DIRECTION
PRES   - MEAN SEA LEVEL PRESSURE IN INCHES OF MERCURY
         F - FALLING PRESSURE   R - RISING PRESSURE
         S - STEADY PRESSURE
VSB    - VISIBILITY IN MILES
HX     - HEAT INDEX IN FAHRENHEIT
WCI    - WIND CHILL INDEX IN FAHRENHEIT
TC     - TEMPERATURE IN CELSIUS WHICH IS ALSO KNOWN AS
         TEMPERATURE IN CENTIGRADE
AFB    - AIR FORCE BASE
         LUKE AFB IS LUKE AIR FORCE BASE
         DAVIS-MONTHAN IS DAVIS-MONTHAN AIR FORCE BASE
NAS    - NAVAL AIR STATION
         EL CENTRO NAS IS EL CENTRO NAVAL AIR STATION
N/A    - NOT AVAILABLE



USA.gov is the U.S. government's official web portal to all federal, state and local government web resources and services.